Location: Bad Dürkheim
(49.4618°N, 8.1724°E)
Time: 16:11:56
(UTC+00:00)

ERS-1 Rocket - Pass Details

Date: 14 June 2025
Orbit: 746 x 753 km, 98.2° (Epoch: 20 July)

Event Time Altitude Azimuth Distance (km) Brightness Sun altitude
Exits shadow 20:17:14 - 173° (S) 3,155 5.7 -5.8°
Reaches altitude 10° 20:19:27 10° 177° (S) 2,271 5.0 -6.1°
Maximum altitude 20:24:24 63° 258° (WSW) 841 3.4 -6.6°
Drops below altitude 10° 20:29:24 10° 340° (NNW) 2,285 6.8 -7.1°
Sets 20:31:44 0° 344° (NNW) 3,213 7.6 -7.4°
